Flag for Austria Weather past 2 weeks in Klagenfurt, Carinthia, Austria

Now
61 °F

Cool.


Feels Like: 61 °F
Forecast: 60 / 74 °F
Wind: 3 mph from Northwest

Location: Klagenfurt-Flughafen

Current Time: Sep 1, 2015 at 4:56:43 AM

Latest Report: Sep 1, 2015 at 3:50 AM


Visibility: N/A

Pressure: 29.98 "Hg

Humidity: 88%

Dew point: 57 °F

Location of KlagenfurtLocation

Historic Weather in Klagenfurt — Graph

°F

Klagenfurt temperature yesterday

Maximum temperature yesterday: 88 °F (at 2:50 PM)
Minimum temperature yesterday: 57 °F (at 5:20 AM)
Average temperature yesterday: 72 °F

Past Weeks' High & Low Weather Summary

 TemperatureHumidityPressure
High90 °F (Aug 30, 3:50 PM)100% (Aug 18, 1:50 AM)30.30 "Hg (Aug 18, 1:50 AM)
Low50 °F (Aug 23, 5:50 AM)31% (Aug 28, 6:20 PM)29.77 "Hg (Aug 17, 3:20 AM)
Average66 °F76%30.08 "Hg
* Reported Aug 17 3:20 AM — Sep 1 3:20 AM, Klagenfurt, Weather by CustomWeather, © 2015

Note: Actual official high and low records may vary slightly from our data, if they occured in-between our weather recording intervals... More about our weather records

Advertising

Klagenfurt weather history for previous 24 hours

 ConditionsComfort  
Time TempWeatherWind HumidityBarometerVisibility
3:20 AM
Tue, Sep 1
61 °FCool.3 mph88%29.98 "HgN/A
2:50 AM63 °FMild.5 mph83%29.98 "HgN/A
2:20 AM63 °FMild.2 mph83%29.98 "HgN/A
1:50 AM63 °FMild.3 mph83%30.01 "HgN/A
1:20 AM64 °FMild.6 mph78%30.01 "HgN/A
12:50 AM64 °FMild.3 mph78%30.01 "HgN/A
11:50 PM
Mon, Aug 31
66 °FMild.2 mph78%30.01 "HgN/A
11:20 PM66 °FClear.1 mph78%29.98 "Hg10 mi
10:50 PM68 °FPassing clouds.5 mph73%30.01 "HgN/A
10:20 PM68 °FPassing clouds.3 mph73%29.98 "HgN/A
9:50 PM70 °FClear.2 mph69%29.98 "Hg10 mi
9:20 PM70 °FClear.3 mph69%29.98 "Hg10 mi
8:50 PM72 °FClear.2 mph65%29.98 "Hg10 mi
8:20 PM73 °FSunny.2 mph61%29.98 "Hg10 mi
7:50 PM79 °FSunny.2 mph51%29.98 "Hg10 mi
7:20 PM82 °FPassing clouds.5 mph42%29.98 "HgN/A
6:50 PM84 °FPassing clouds.7 mph37%29.98 "HgN/A
6:20 PM84 °FPassing clouds.9 mph37%29.98 "HgN/A
5:50 PM86 °FPassing clouds.9 mph38%29.98 "HgN/A
5:20 PM86 °FPassing clouds.9 mph38%29.98 "HgN/A
4:50 PM88 °FPassing clouds.9 mph38%29.98 "HgN/A
4:20 PM88 °FPassing clouds.8 mph35%29.98 "HgN/A
3:50 PM88 °FPassing clouds.7 mph35%30.01 "HgN/A
3:20 PM88 °FPassing clouds.6 mph33%30.01 "HgN/A
2:50 PM88 °FPassing clouds.2 mph33%30.01 "HgN/A
2:20 PM86 °FPassing clouds.5 mph38%30.04 "HgN/A
1:50 PM84 °FPassing clouds.3 mph40%30.04 "HgN/A
1:20 PM82 °FPassing clouds.2 mph42%30.04 "HgN/A
12:50 PM81 °FPassing clouds.2 mph42%30.04 "HgN/A
12:20 PM81 °FPassing clouds.3 mph42%30.07 "HgN/A
11:50 AM77 °FSunny.2 mph47%30.07 "Hg10 mi
11:20 AM75 °FSunny.3 mph50%30.09 "Hg10 mi
10:50 AM73 °FSunny.3 mph53%30.09 "Hg10 mi
10:20 AM73 °FSunny.3 mph53%30.09 "Hg10 mi
9:50 AM70 °FMild.3 mph60%30.09 "HgN/A
9:20 AM68 °FSunny.2 mph69%30.12 "Hg10 mi
8:50 AM66 °FSunny.2 mph68%30.12 "Hg10 mi
8:20 AM64 °FPassing clouds.3 mph78%30.12 "HgN/A
7:50 AM59 °FSunny.5 mph88%30.12 "Hg10 mi
7:20 AM59 °FSunny.3 mph88%30.12 "Hg10 mi
6:50 AM57 °FClear.6 mph94%30.12 "Hg10 mi
6:20 AM57 °FClear.6 mph94%30.12 "Hg10 mi
5:50 AM57 °FClear.2 mph88%30.12 "Hg10 mi
5:20 AM57 °FCool.5 mph94%30.12 "HgN/A
4:50 AM59 °FCool.7 mph94%30.09 "HgN/A
4:20 AM61 °FCool.3 mph88%30.12 "HgN/A
Weather by CustomWeather, © 2015

See weather overviewHow to use our weather pages